TimeAKDT,TemperatureF,Dew PointF,Humidity,Sea Level PressureIn,VisibilityMPH,Wind Direction,Wind SpeedMPH,Gust SpeedMPH,PrecipitationIn,Events,Conditions,WindDirDegrees,DateUTC
12:55 AM,16.0,11.8,84,30.01,10.0,ENE,4.6,-,N/A,,Clear,60,2012-10-28 08:55:00
1:55 AM,18.3,11.7,75,30.01,10.0,ENE,5.8,-,N/A,,Clear,60,2012-10-28 09:55:00
2:55 AM,19.2,11.7,72,30.00,10.0,Calm,Calm,-,N/A,,Clear,0,2012-10-28 10:55:00
3:55 AM,15.8,11.3,82,29.99,10.0,NE,3.5,-,N/A,,Clear,50,2012-10-28 11:55:00
4:55 AM,14.0,9.1,81,29.99,10.0,Calm,Calm,-,N/A,,Clear,0,2012-10-28 12:55:00
5:55 AM,13.8,9.0,81,29.99,10.0,Calm,Calm,-,N/A,,Clear,0,2012-10-28 13:55:00
6:55 AM,12.2,7.5,82,29.99,10.0,NE,4.6,-,N/A,,Clear,50,2012-10-28 14:55:00
7:55 AM,12.6,7.7,81,30.00,10.0,Calm,Calm,-,N/A,,Clear,0,2012-10-28 15:55:00
8:55 AM,16.7,12.7,84,29.99,10.0,Calm,Calm,-,N/A,,Clear,0,2012-10-28 16:55:00
9:55 AM,13.3,8.8,82,30.00,10.0,Calm,Calm,-,N/A,,Clear,0,2012-10-28 17:55:00
10:55 AM,22.1,16.2,78,30.00,10.0,NE,3.5,-,N/A,,Clear,40,2012-10-28 18:55:00
11:55 AM,28.6,17.6,64,30.00,10.0,NNE,3.5,-,N/A,,Clear,20,2012-10-28 19:55:00
12:55 PM,29.8,18.9,64,30.00,10.0,North,4.6,-,N/A,,Clear,10,2012-10-28 20:55:00
1:55 PM,30.6,21.4,69,30.00,10.0,North,4.6,-,N/A,,Clear,10,2012-10-28 21:55:00
2:55 PM,32.2,20.7,63,30.00,10.0,NNW,5.8,-,N/A,,Clear,330,2012-10-28 22:55:00
3:55 PM,32.9,20.3,60,30.00,10.0,Calm,Calm,-,N/A,,Clear,0,2012-10-28 23:55:00
4:55 PM,32.7,20.3,60,29.99,10.0,Calm,Calm,-,N/A,,Clear,0,2012-10-29 00:55:00
5:55 PM,29.7,19.6,66,29.99,10.0,Calm,Calm,-,N/A,,Clear,0,2012-10-29 01:55:00
6:55 PM,24.4,18.1,77,29.99,10.0,Calm,Calm,-,N/A,,Clear,0,2012-10-29 02:55:00
7:55 PM,19.8,14.5,80,30.00,10.0,Calm,Calm,-,N/A,,Clear,0,2012-10-29 03:55:00
8:55 PM,20.8,15.3,79,30.00,10.0,Calm,Calm,-,N/A,,Clear,0,2012-10-29 04:55:00
9:55 PM,18.0,12.9,81,30.01,10.0,Calm,Calm,-,N/A,,Clear,0,2012-10-29 05:55:00
10:55 PM,17.4,12.2,80,30.00,10.0,Calm,Calm,-,N/A,,Clear,0,2012-10-29 06:55:00
11:55 PM,17.6,13.3,83,30.00,10.0,Calm,Calm,-,N/A,,Clear,0,2012-10-29 07:55:00